Location: Unspecified
(0.0000°N, 0.0000°E)
Time: 23:23:56
(UTC+00:00)

S-56A Canister/Altair - Pass Details

Date: 07 October 2020
Orbit: 633 x 2499 km, 38.9° (Epoch: 28 October)

Event Time Altitude Azimuth Distance (km) Brightness Sun altitude
Rises 20:55:35 0° 302° (WNW) 5,314 12.3 -46.7°
Reaches altitude 10° 20:59:40 10° 297° (WNW) 4,024 11.6 -47.7°
Enters shadow 21:05:25 32° 279° (W) 2,273 10.1 -49.1°
Maximum altitude 21:09:12 50° 226° (SW) 1,571 - -50.0°
Drops below altitude 10° 21:15:33 10° 151° (SSE) 2,708 - -51.6°
Sets 21:17:50 0° 145° (SE) 3,473 - -52.2°
